Location: Haliburton Scout Reserve
(45.0900°N, 78.3200°W)
Time: 13:53:35
(UTC-04:00)

CAS-6 - Visible Passes

Search period start: 17 May 2022 00:00
Search period end: 27 May 2022 00:00
Orbit: 614 x 633 km, 97.9° (Epoch: 17 May)

Date Brightness Start Highest point End Pass type
(mag) Time Alt. Az. Time Alt. Az. Time Alt. Az.
17 May ? 00:26:03 23° W 00:26:21 23° W 00:29:54 10° NW visible
17 May ? 23:07:26 43° ESE 23:08:29 55° ENE 23:12:48 10° N visible
18 May ? 00:44:41 15° W 00:45:01 15° W 00:47:39 10° NW visible
18 May ? 21:50:42 10° ENE 21:51:30 10° ENE 21:52:17 10° NE visible
18 May ? 23:26:04 57° SSE 23:26:56 85° ENE 23:31:21 10° NNW visible
19 May ? 22:07:27 11° E 22:09:44 16° ENE 22:12:19 10° NNE visible
19 May ? 23:44:42 52° SW 23:45:26 61° W 23:49:48 10° NNW visible
20 May ? 22:26:05 17° E 22:28:01 22° ENE 22:31:26 10° NNE visible
21 May ? 00:03:20 37° WSW 00:03:59 39° W 00:08:07 10° NNW visible
21 May ? 22:44:43 25° ESE 22:46:21 33° ENE 22:50:18 10° N visible
22 May ? 00:21:57 25° WSW 00:22:34 26° W 00:26:15 10° NW visible
22 May ? 23:03:21 36° ESE 23:04:44 50° ENE 23:09:00 10° N visible
23 May ? 00:40:35 16° WSW 00:41:12 17° W 00:44:05 10° NW visible
23 May ? 23:21:58 48° SSE 23:23:10 78° ENE 23:27:35 10° N visible
24 May ? 00:59:13 10° W 00:59:55 11° W 01:01:02 10° WNW visible
24 May ? 22:03:39 10° E 22:06:00 14° ENE 22:08:22 10° NNE visible
24 May ? 23:40:36 49° SSW 23:41:39 68° WSW 23:46:03 10° NNW visible
25 May ? 22:21:59 14° ESE 22:24:16 21° ENE 22:27:33 10° NNE visible
25 May ? 23:59:14 37° SW 00:00:10 43° W 00:04:23 10° NNW visible
26 May ? 22:40:37 21° ESE 22:42:35 30° ENE 22:46:27 10° N visible
